Regional Weather Roundup
Issued by NWS Mobile, AL

Home | Current Version | Previous Version | Text Only | Print | Product List | Glossary On
Versions: 1 2 3 4 5 6 7 8 9 10 11 12 13 14 15 16 17 18 19 20 21 22 23 24 25 26 27 28 29 30 31 32 33 34 35 36 37 38 39 40 41 42 43 44 45 46 47 48 49 50
000
ASUS44 KMOB 060417
RWRMOB
REGIONAL WEATHER ROUNDUP
NATIONAL WEATHER SERVICE MOBILE AL
1100 PM CDT TUE MAY 05 2015

ALZ061>064-060500-
COASTAL ALABAMA


CITY           SKY/WX    TMP DP  RH WIND       PRES   REMARKS
MOBILE REG APT PTCLDY    66  61  84 E3        30.16S
BROOKLEY FIELD PTCLDY    71  62  73 E7        30.16F
GULF SHORES    CLEAR     65  63  94 E5        30.15S

$$

ALZ051>060-060500-
INTERIOR SOUTHWEST AND SOUTH CENTRAL ALABAMA


CITY           SKY/WX    TMP DP  RH WIND       PRES   REMARKS
ANDALUSIA/OPP  CLEAR     68  53  58 CALM      30.17S
EVERGREEN      CLEAR     60  58  92 CALM      30.18S
FLORALA        CLEAR     66  55  67 E3        30.19S
GREENVILLE     FAIR      61  55  81 CALM      30.18S

$$

FLZ001>006-060500-
WESTERN FLORIDA PANHANDLE


CITY           SKY/WX    TMP DP  RH WIND       PRES   REMARKS
CRESTVIEW      PTCLDY    61  58  90 CALM      30.18S
DESTIN         CLOUDY    71  67  87 N3        30.16S
DUKE FIELD     PTCLDY    63  59  88 CALM      30.17S
MARY ESTHER    MOCLDY    67  63  86 CALM      30.15S
MILTON         PTCLDY    65  60  84 CALM      30.17S
PENSACOLA      PTCLDY    69  64  84 CALM      30.15F
NAS PENSACOLA  PTCLDY    67  64  90 CALM      30.15S
VALPARAISO     MOCLDY    69  63  81 CALM      30.16R

$$

...MARINE OBSERVATIONS...

STATION/POSITION TIME  SKY/WX   TEMP    WIND        PRES    VSBY
                                AIR SEA DIR/SP/G
                 (UTC)          (F)     (DEG/KT/KT) (MB)    (MI)
PASCAGOULA       0300            73     120/  6/  7 1020.4R
PETIT BOIS ISL   0300            73     110/  8/ 12 1020.9R
E DAUPHIN ISLAND 0400            74     110/ 12/ 13 1020.5F
MIDDLE BAY LIGHT 0300            73     120/ 11     1020.3S
USCG MOBILE BAY  0300            73 74  140/  4/  5 1020.2R
STATE DOCKS      0300            73 71              1021.0R
MEAHER PARK      0400            70        CALM     1021.0F
FORT MORGAN      0300            73     130/ 12/ 13 1020.4R
12 S ORANGE BCH  0350            74 75  100/ 10/ 12 1020.1F
WVE H/P(F/S)=  4/ 7

PENSACOLA BAY    0300            76 77   CALM  /  1 1021.6R
64 S DAUPHIN ISL 0350            74 75  110/ 17/ 21 1020.3F
WVE H/P(F/S)=  5/ 7

67 S FORT MORGAN 0330            73                 1020.0
115 SE PENSACOLA 0350            74 75   70/ 12/ 16 1020.6S
WVE H/P(F/S)=  4/ 6

MID GULF/42001   0350            77 79   90/ 17/ 21 1017.7R
WVE H/P(F/S)=  6/ 6

EAST GULF/42003  0350            78 81   90/ 12/ 16 1018.5S
WVE H/P(F/S)=  4/ 7


$$

...NEARBY LOCATIONS

CITY           SKY/WX    TMP DP  RH WIND       PRES   REMARKS
GULFPORT       CLEAR     71  63  75 E7        30.13S
BILOXI         CLEAR     70  65  85 E5        30.13S
PASCAGOULA     CLEAR     62  61  96 CALM      30.15R
HATTIESBURG    CLEAR     65  61  87 CALM      30.15F
LAUREL         CLEAR     61  55  82 CALM      30.16S
MERIDIAN       CLEAR     70  55  59 SE6       30.16S
MERIDIAN NAS   CLEAR     65  56  72 CALM      30.17S
MONTGOMERY     CLEAR     66  56  70 CALM      30.19S
MAXWELL AFB    CLEAR     64  61  90 N2        30.18S
TROY           CLEAR     61  55  81 CALM      30.19F
FORT RUCKER    PTCLDY    63  56  78 CALM      30.17S
DALEVILLE      MOCLDY    67  56  65 NE6       30.17F
DOTHAN         MOCLDY    67  56  67 NE5       30.21F

$$

...OTHER SURROUNDING LOCATIONS...

CITY           SKY/WX    TMP DP  RH WIND       PRES   REMARKS
BIRMINGHAM     CLEAR     65  57  75 CALM      30.23S
TUSCALOOSA     CLEAR     65  58  78 CALM      30.19S
COLUMBUS GA    CLEAR     65  52  62 E3        30.21S
PANAMA CITY    NOT AVBL
TALLAHASSEE    PTCLDY    74  61  63 E9        30.18R
BATON ROUGE    CLEAR     67  62  84 E6        30.11F
NEW ORLEANS    PTCLDY    70  62  76 SE6       30.12S
SLIDELL        CLEAR     62  61  96 N3        30.13S
JACKSON        CLEAR     71  57  61 SE9       30.14R
MCCOMB         CLEAR     67  58  72 SE3       30.15R

$$

...SURROUNDING MARINE OBSERVATIONS...

STATION/POSITION TIME  SKY/WX   TEMP    WIND        PRES    VSBY
                                AIR SEA DIR/SP/G
                 (UTC)          (F)     (DEG/KT/KT) (MB)    (MI)
WAVELAND         0300            75 76  130/ 11/ 12 1020.1S
PASCAGOULA RGN A 0300            74     130/  8/ 11 1020.1R
PASCAGOULA PORT  0300               78                N/A
GRAND ISLE       0300            74 77  110/  8/ 14 1019.6R
SOUTHWEST PASS   0400            74     100/ 18/ 19 1019.8R
PILOT STATION E  0300            74 67  100/ 18/ 20 1020.0R
SHELL BEACH      0300            73 77  120/  8/  9 1019.6R
PANAMA CITY      0300            76 78  120/  4/ 10 1020.6R
APALACHICOLA     0300            74 73   70/  5/  9 1020.9R
TYNDALL TOWER C  0400            73      90/ 18/ 20 1020.7F
S APLCHCLA/42036 0350            76 75   70/ 16/ 17 1020.0R
WVE H/P(F/S)=  4/ 5


$$



USA.gov is the U.S. government's official web portal to all federal, state and local government web resources and services.